Location: ??????
(31.2056°N, 45.3906°E)
Time: 01:12:29
(UTC+00:00)

ATLAS 2AS CENTAUR R/B - Pass Details

Date: 09 April 2020
Orbit: 931 x 1280 km, 63.7° (Epoch: 31 May)

Event Time Altitude Azimuth Distance (km) Brightness Sun altitude
Rises 16:24:01 0° 336° (NNW) 4,120 6.4 -13.5°
Reaches altitude 10° 16:27:02 10° 343° (NNW) 3,106 5.6 -14.1°
Maximum altitude 16:34:04 45° 55° (NE) 1,472 3.2 -15.5°
Enters shadow 16:37:59 23° 114° (ESE) 2,077 3.6 -16.3°
